DW6435 Fredericksburg VA US current weather conditions

sailwx.info

Wind from 275

Air temperature 7.8° C
Dewpoint -1.5° C

Last reported at 2020-Jan-28 21:00 UTC.
Time now 2020-Jan-28 22:06 UTC

Location: N 38°18' W 077°25'.
View on Google Maps.

See reports from other nearby stations

  
Tides and Currents Weather Stations Pressure Air Temp Water Temp Dewpoint Dewpoint Depression Visibility Wind Speed Wind Dir Waves Ship Positions
date/time (UTC)wind fromknots sea level pressurealtimeterstation pressurevisibilityair tempwater tempwave heightnotes
2020-Jan-28 21:00 275 7.8
2020-Jan-28 20:45 288 7.8
2020-Jan-28 20:39 319 0 gusting 5 8.3
2020-Jan-28 20:34 286 0 gusting 5 8.3
2020-Jan-28 20:28 270 8.3
2020-Jan-28 20:23 284 0 gusting 3 8.3
2020-Jan-28 20:18 271 0 gusting 2 8.3
2020-Jan-28 20:13 279 8.3
2020-Jan-28 20:08 290 1 gusting 5 8.3
2020-Jan-28 20:03 266 1 gusting 5 8.3
2020-Jan-28 19:58 273 8.3
2020-Jan-28 19:53 279 1 gusting 4 8.3
2020-Jan-28 19:49 278 8.3
2020-Jan-28 19:43 275 8.3
2020-Jan-28 19:39 254 0 gusting 5 8.3
2020-Jan-28 19:34 294 0 gusting 4 8.3
2020-Jan-28 19:28 237 8.3
2020-Jan-28 19:23 355 0 gusting 3 8.3
2020-Jan-28 19:18 292 0 gusting 3 8.3
2020-Jan-28 19:13 271 8.3
2020-Jan-28 19:08 286 8.3
2020-Jan-28 19:03 042 1 gusting 6 8.3
2020-Jan-28 18:58 286 1 gusting 6 8.3
2020-Jan-28 18:53 311 0 gusting 3 8.3
2020-Jan-28 18:48 067 8.3
2020-Jan-28 18:43 057 0 gusting 3 8.3
2020-Jan-28 18:38 324 8.3
2020-Jan-28 18:33 286 8.3
2020-Jan-28 18:28 281 0 gusting 5 8.3
2020-Jan-28 18:23 300 0 gusting 6 8.3
2020-Jan-28 18:18 284 1 gusting 6 8.3
2020-Jan-28 18:13 275 0 gusting 5 8.3
2020-Jan-28 18:08 294 0 gusting 7 8.3
2020-Jan-28 18:03 285 2 gusting 7 8.3
2020-Jan-28 17:59 240 1 gusting 6 8.3
2020-Jan-28 17:53 240 0 gusting 5 8.3
2020-Jan-28 17:48 323 1 gusting 4 8.9
2020-Jan-28 17:43 268 0 gusting 5 8.9
2020-Jan-28 17:38 288 1 gusting 6 8.9
2020-Jan-28 17:34 344 1 gusting 7 8.9
2020-Jan-28 17:28 271 2 gusting 7 8.9
2020-Jan-28 17:24 010 0 gusting 6 8.3
2020-Jan-28 17:19 307 0 gusting 6 7.8
2020-Jan-28 17:14 310 0 gusting 4 7.8
2020-Jan-28 17:09 267 0 gusting 4 7.8
2020-Jan-28 17:03 242 0 gusting 5 7.8
2020-Jan-28 16:58 240 1 gusting 6 7.8
2020-Jan-28 16:53 308 1 gusting 6 7.8
2020-Jan-28 16:48 279 7.8
2020-Jan-28 16:44 265 1 gusting 6 7.8
2020-Jan-28 16:38 015 0 gusting 6 7.8
2020-Jan-28 16:33 300 0 gusting 6 7.8
2020-Jan-28 16:29 299 1 gusting 6 7.8
2020-Jan-28 16:24 333 1 gusting 6 7.8
2020-Jan-28 16:18 267 3 gusting 6 7.8
2020-Jan-28 16:13 058 0 gusting 9 7.8
2020-Jan-28 16:09 294 3 gusting 9 7.8
2020-Jan-28 16:03 249 0 gusting 6 8.3
2020-Jan-28 15:58 059 1 gusting 7 8.3
2020-Jan-28 15:53 013 1 gusting 7 8.3
2020-Jan-28 15:48 324 0 gusting 5 8.3
2020-Jan-28 15:43 329 1 gusting 5 8.3
2020-Jan-28 15:33 183 1 gusting 9 8.3
2020-Jan-28 15:29 284 0 gusting 6 8.3
2020-Jan-28 15:23 282 2 gusting 6 8.3
2020-Jan-28 15:18 303 0 gusting 3 7.8
2020-Jan-28 15:13 280 0 gusting 4 7.2
2020-Jan-28 15:08 295 1 gusting 4 7.2
2020-Jan-28 15:04 289 0 gusting 4 7.2
2020-Jan-28 14:58 263 0 gusting 6 6.7
2020-Jan-28 14:54 239 1 gusting 5 6.7
2020-Jan-28 14:48 290 0 gusting 3 6.7
2020-Jan-28 14:43 211 0 gusting 3 6.7
2020-Jan-28 14:38 269 0 gusting 3 6.1
2020-Jan-28 14:33 281 6.1
2020-Jan-28 14:28 273 0 gusting 3 6.1
2020-Jan-28 14:24 290 6.1
2020-Jan-28 14:18 287 5.6
2020-Jan-28 14:13 266 5.6
2020-Jan-28 14:08 263 0 gusting 3 5.6
2020-Jan-28 14:03 281 5.6
2020-Jan-28 13:58 276 5.6
2020-Jan-28 13:53 273 5.6
2020-Jan-28 13:48 285 5.6
2020-Jan-28 13:44 279 0 gusting 1 5.0
2020-Jan-28 13:38 284 5.0
2020-Jan-28 13:33 284 5.0
2020-Jan-28 13:28 263 0 gusting 3 5.0
2020-Jan-28 13:23 287 5.0
2020-Jan-28 13:18 288 5.0
2020-Jan-28 13:13 275 5.0
2020-Jan-28 13:08 277 5.0
2020-Jan-28 13:04 284 4.4
2020-Jan-28 12:59 297 4.4
2020-Jan-28 12:54 297 4.4
2020-Jan-28 12:48 297 4.4
2020-Jan-28 12:43 297 4.4
2020-Jan-28 12:38 304 4.4
2020-Jan-28 12:34 292 4.4
2020-Jan-28 12:29 292 4.4
2020-Jan-28 12:23 296 4.4
2020-Jan-28 12:19 306 4.4
2020-Jan-28 12:13 306 4.4
2020-Jan-28 12:08 300 4.4
2020-Jan-28 12:03 269 4.4
2020-Jan-28 11:58 269 4.4
2020-Jan-28 11:53 269 4.4
2020-Jan-28 11:48 269 4.4
2020-Jan-28 11:30 269 4.4
2020-Jan-28 11:15 288 4.4
2020-Jan-28 11:00 284 4.4
2020-Jan-28 10:45 277 4.4
2020-Jan-28 10:30 284 4.4
2020-Jan-28 10:15 283 4.4
2020-Jan-28 10:00 288 4.4
2020-Jan-28 09:45 284 4.4
2020-Jan-28 09:30 268 4.4
2020-Jan-28 09:15 269 4.4
2020-Jan-28 09:00 275 4.4
2020-Jan-28 08:45 290 4.4
2020-Jan-28 08:30 282 5.0
2020-Jan-28 08:15 287 5.0
2020-Jan-28 08:00 290 5.0
2020-Jan-28 07:45 286 5.0
2020-Jan-28 07:30 283 5.0
2020-Jan-28 07:15 283 5.0
2020-Jan-28 07:03 263 5.0
2020-Jan-28 06:46 279 5.0
2020-Jan-28 06:32 281 5.0
2020-Jan-28 06:16 291 5.0
2020-Jan-28 06:01 290 5.0
2020-Jan-28 05:46 286 5.0
2020-Jan-28 05:32 261 5.6
2020-Jan-28 05:16 277 5.6
2020-Jan-28 05:02 265 5.6
2020-Jan-28 04:46 266 5.6
2020-Jan-28 04:31 265 5.6
2020-Jan-28 04:18 265 5.6
2020-Jan-28 04:01 259 5.6
2020-Jan-28 03:46 246 6.1
2020-Jan-28 03:31 312 0 gusting 4 6.1
2020-Jan-28 03:16 279 6.1
2020-Jan-28 03:01 255 6.1
2020-Jan-28 02:47 247 0 gusting 5 6.1
2020-Jan-28 02:31 285 6.1
2020-Jan-28 02:17 265 6.1
2020-Jan-28 02:01 293 6.1
2020-Jan-28 01:46 302 6.7
2020-Jan-28 01:32 284 6.7
2020-Jan-28 01:17 267 6.7
2020-Jan-28 01:01 345 6.7
2020-Jan-28 00:46 295 7.2
2020-Jan-28 00:30 258 0 gusting 4 7.2
2020-Jan-28 00:16 319 7.2
2020-Jan-28 00:01 286 7.2
2020-Jan-27 23:46 323 7.8
2020-Jan-27 23:32 316 7.8
2020-Jan-27 23:16 314 7.8
2020-Jan-27 23:01 316 8.3
2020-Jan-27 22:46 312 8.3
2020-Jan-27 22:31 268 8.9
2020-Jan-27 22:16 268 9.4
2020-Jan-27 22:01 265 9.4
2020-Jan-27 21:46 265 10.0
2020-Jan-27 21:31 265 10.0
2020-Jan-27 21:16 265 10.6
2020-Jan-27 21:01 211 10.6
2020-Jan-27 20:46 223 0 gusting 4 11.1
2020-Jan-27 20:30 253 11.7
2020-Jan-27 20:01 252 10.6
2020-Jan-27 19:46 297 0 gusting 6 10.6
2020-Jan-27 19:34 235 11.1
2020-Jan-27 19:28 235 11.1
2020-Jan-27 19:24 220 1 gusting 6 11.7
2020-Jan-27 19:18 281 0 gusting 4 11.1
2020-Jan-27 19:13 271 11.1
2020-Jan-27 19:08 288 11.7
2020-Jan-27 19:04 275 1 gusting 6 11.7
2020-Jan-27 18:59 204 11.1
2020-Jan-27 18:53 222 3 gusting 9 11.1
2020-Jan-27 18:49 221 2 gusting 9 11.7
2020-Jan-27 18:43 223 2 gusting 9 12.2
2020-Jan-27 18:39 207 1 gusting 7 11.7
2020-Jan-27 18:33 248 0 gusting 7 11.7
2020-Jan-27 18:29 219 1 gusting 6 11.7
2020-Jan-27 18:23 205 3 gusting 6 11.7
2020-Jan-27 18:18 251 11.7
2020-Jan-27 18:13 316 2 gusting 6 11.1
2020-Jan-27 18:09 211 1 gusting 6 11.1
2020-Jan-27 18:04 232 3 gusting 6 11.7
2020-Jan-27 17:58 279 0 gusting 6 11.1
2020-Jan-27 17:54 216 1 gusting 6 11.1
2020-Jan-27 17:48 288 10.6
2020-Jan-27 17:44 327 0 gusting 4 11.1
2020-Jan-27 17:38 241 11.1
2020-Jan-27 17:34 275 0 gusting 4 11.7
2020-Jan-27 17:28 270 0 gusting 6 11.7
2020-Jan-27 17:23 275 2 gusting 6 11.1
2020-Jan-27 17:19 235 1 gusting 6 11.1
2020-Jan-27 17:14 207 2 gusting 8 11.1
2020-Jan-27 17:08 196 0 gusting 7 11.1
2020-Jan-27 17:03 199 0 gusting 5 10.6
2020-Jan-27 16:58 174 1 gusting 6 10.6
2020-Jan-27 16:54 217 0 gusting 6 10.6
2020-Jan-27 16:48 115 10.0
2020-Jan-27 16:44 214 0 gusting 5 10.0
2020-Jan-27 16:39 214 0 gusting 5 9.4
2020-Jan-27 16:33 213 1 gusting 5 9.4
2020-Jan-27 16:28 213 8.9
2020-Jan-27 16:23 213 8.3
2020-Jan-27 16:18 213 8.3
2020-Jan-27 16:14 211 8.3
2020-Jan-27 16:08 214 8.3
2020-Jan-27 16:03 221 1 gusting 6 7.8
2020-Jan-27 15:59 225 2 gusting 6 7.8
2020-Jan-27 15:53 229 0 gusting 4 7.8
2020-Jan-27 15:49 229 1 gusting 5 7.8
2020-Jan-27 15:43 240 0 gusting 5 7.8
2020-Jan-27 15:39 250 0 gusting 4 7.2
2020-Jan-27 15:33 252 7.2
2020-Jan-27 15:29 254 0 gusting 2 6.7
2020-Jan-27 15:24 254 6.7
2020-Jan-27 15:19 254 0 gusting 3 6.7
2020-Jan-27 15:13 254 6.1
2020-Jan-27 15:09 254 0 gusting 2 6.1
2020-Jan-27 15:03 255 5.6
2020-Jan-27 14:59 256 0 gusting 2 5.6
2020-Jan-27 14:54 257 5.6
2020-Jan-27 14:49 257 5.0
2020-Jan-27 14:44 257 5.0
2020-Jan-27 14:39 257 5.0
2020-Jan-27 14:33 257 1 gusting 3 4.4
2020-Jan-27 14:29 271 3.9
2020-Jan-27 14:24 271 3.3
2020-Jan-27 14:19 271 3.3
2020-Jan-27 14:14 271 2.8
2020-Jan-27 14:08 271 2.8
2020-Jan-27 14:04 271 2.2
2020-Jan-27 13:58 271 1.7
2020-Jan-27 13:54 271 1.7
2020-Jan-27 13:48 271 1.1
2020-Jan-27 13:43 271 0.6
2020-Jan-27 13:39 271 0.6
2020-Jan-27 13:33 271 -0.0
2020-Jan-27 13:28 271 -0.0
2020-Jan-27 13:24 271 -0.0
2020-Jan-27 13:18 271 -0.6
2020-Jan-27 13:14 271 -0.6
2020-Jan-27 13:09 271 -0.6
2020-Jan-27 13:03 271 -0.6
2020-Jan-27 12:58 271 -0.6
2020-Jan-27 12:54 271 -0.6
2020-Jan-27 12:48 271 -0.6
2020-Jan-27 12:43 271 -1.1
2020-Jan-27 12:38 271 -1.1
2020-Jan-27 12:34 271 -1.1
2020-Jan-27 12:28 271 -1.1
2020-Jan-27 12:23 271 -1.1
2020-Jan-27 12:19 271 -1.1
2020-Jan-27 12:14 271 -1.1
2020-Jan-27 12:08 271 -1.1
2020-Jan-27 12:04 271 -1.1
2020-Jan-27 11:59 271 -1.1
2020-Jan-27 11:54 271 -1.1
2020-Jan-27 11:48 271 -1.1
2020-Jan-27 11:43 271 -1.1
2020-Jan-27 11:39 271 -1.1
2020-Jan-27 11:34 271 -1.1
2020-Jan-27 11:29 271 -1.1
2020-Jan-27 11:23 271 -1.1
2020-Jan-27 11:18 271 -1.1
2020-Jan-27 11:14 271 -1.1
2020-Jan-27 11:02 271 -1.7
2020-Jan-27 10:45 271 -1.7
2020-Jan-27 10:31 271 -1.1
2020-Jan-27 10:15 271 -1.1
2020-Jan-27 10:01 271 -1.1
2020-Jan-27 09:46 271 -1.1
2020-Jan-27 09:31 271 -1.1
2020-Jan-27 09:16 271 -1.1
2020-Jan-27 09:01 271 -0.6
2020-Jan-27 08:46 271 -0.6
2020-Jan-27 08:30 271 -0.0
2020-Jan-27 08:15 271 -0.0
2020-Jan-27 08:00 271 0.6
2020-Jan-27 07:45 271 0.6
2020-Jan-27 07:30 271 0.6
2020-Jan-27 07:15 271 0.6
2020-Jan-27 07:00 271 0.6
2020-Jan-27 06:45 271 0.6
2020-Jan-27 06:31 271 0.6
2020-Jan-27 06:15 271 0.6
2020-Jan-27 06:00 271 0.6
2020-Jan-27 05:45 271 1.1
2020-Jan-27 05:16 271 1.1
2020-Jan-27 05:01 271 1.7
2020-Jan-27 04:48 271 1.7
2020-Jan-27 04:32 271 2.2
2020-Jan-27 04:18 271 2.8
2020-Jan-27 04:02 271 3.3
2020-Jan-27 03:49 271 3.9
2020-Jan-27 03:32 271 5.0
2020-Jan-27 03:16 271 5.6
2020-Jan-27 03:03 271 6.1
2020-Jan-27 02:47 271 6.1
2020-Jan-27 02:32 271 6.7
2020-Jan-27 02:17 276 6.7
2020-Jan-27 02:02 276 6.7
2020-Jan-27 01:47 269 7.2
2020-Jan-27 01:31 277 7.2
2020-Jan-27 01:16 286 7.2
2020-Jan-27 01:05 288 7.2
2020-Jan-27 00:47 288 7.2
2020-Jan-27 00:31 288 7.2
2020-Jan-27 00:18 275 7.2
2020-Jan-27 00:01 276 7.2
2020-Jan-26 23:46 276 7.8
2020-Jan-26 23:32 276 7.8
2020-Jan-26 23:16 276 7.8
2020-Jan-26 23:02 276 7.8
2020-Jan-26 22:46 276 8.3
2020-Jan-26 22:31 276 8.3
2020-Jan-26 22:17 276 8.9
2020-Jan-26 22:03 244 8.9